www.pogodaiklimat.ru

Погода и климат >> Архив погоды >> Сербия >> Валево


ПОГОДА в Валево

  • Прогноз погоды в Валево
  • Монитор погоды в Валево

АРХИВ ПОГОДЫ в Валево

Время (UTC), дата Ветер
(напр.,м/с)
 
Видим.   Явления Облачность Т
(С)
Тd
(С)
f
(%)
Тe
(С)
Тes
(С)
Комфортность P
(гПа)
Po
(гПа)
Тmin
(С)
Tmax
(С)
R
(мм)
R24
(мм)
S
(см)
13 13.07 СЗ 1 50 км 9/5 1000 м
[Cu Sc Cs]
+23.6 +14.9 58 +26 +33 жарко 1009.4 989.3
14 13.07 СЗ 1 30 км 9/9 1000 м
[Cu Sc]
+22.9 +16.0 65 +27 +28 душно 1009.0 988.8
15 13.07 СЗ 2 30 км 9/9 1000 м
[Cu Sc]
+22.3 +16.0 68 +26 +27 жарко 1009.2 988.9
16 13.07 СЗ 1 20 км 9/9 1000 м
[Cu Sc]
+21.3 +16.9 76 +25 +25 комфорт 1009.3 989.0
17 13.07 СЗ 1 10 км в посл. час дождь 10/10 1000 м
[Cu Sc]
+20.0 +17.4 85 +24 +24 комфорт 1009.6 989.2
18 13.07 З 3 10 км слаб. дождь 10/10 1000 м
[Cu Sc]
+18.3 +16.3 88 +19 +19 1009.8 989.3 +24.1 0.1
19 13.07 ЮЗ 2 10 км слаб. дождь 10/10 1000 м
[Sc]
+16.1 +15.3 95 +16 +16 1011.8 991.0
20 13.07 ЮЗ 2 10 км слаб. дождь 10/10 1000 м
[Sc]
+16.1 +15.3 95 +16 +16 1012.0 991.0
21 13.07 ЮЗ 1 10 км слаб. дождь 10/0
[As op]
+16.1 +15.3 95 +17 +17 1011.9 991.1
22 13.07 ЮЗ 1 10 км слаб. дождь 10/0
[As op]
+15.8 +15.1 96 +16 +16 1011.8 991.0
23 13.07 З 1 10 км в посл. час дождь 10/10 1000 м
[Sc]
+15.8 +15.1 96 +16 +16 1011.7 990.9
00 14.07 ЮЗ 2 10 км в посл. час дождь 10/10 1000 м
[Sc]
+15.8 +15.1 96 +16 +16 1011.4 990.6 4
01 14.07 ЮЗ 2 10 км 10/10 1000 м
[Sc]
+15.7 +15.0 96 +16 +16 1011.2 990.4
02 14.07 штиль 0 10 км 10/10 1000 м
[Sc]
+15.7 +15.0 96 +15 +15 1011.2 990.3
03 14.07 ЮЗ 2 10 км слаб. дождь 10/10 600 м
[Sc]
+15.4 +14.8 96 +15 +15 1010.8 990.0
04 14.07 З 1 10 км в посл. час дождь 10/10 1000 м
[Sc]
+15.0 +14.4 96 +15 +15 1010.8 990.0
05 14.07 З 1 10 км 10/10 1000 м
[Sc]
+15.4 +14.8 96 +16 +16 1010.8 990.3
06 14.07 З 2 10 км {дождь} 10/10 1000 м
[Sc]
+15.9 +14.8 93 +16 +16 1011.3 990.5 +15.0 5
07 14.07 З 3 10 км в посл. час дождь 10/10 1000 м
[Sc]
+15.9 +14.9 94 +15 +15 1011.5 990.7
08 14.07 З 3 10 км 10/10 1000 м
[Sc]
+16.8 +15.7 93 +17 +17 1011.5 990.9
09 14.07 З 3 10 км в посл. час дождь 10/10 1000 м
[Sc]
+17.7 +16.4 92 +18 +18 1011.5 990.9
10 14.07 З 2 15 км 10/10 1000 м
[Cu Sc]
+18.8 +16.3 85 +20 +20 1011.3 990.8
11 14.07 СЗ 2 10 км 9/9 600 м
[Cu Sc]
+19.8 +17.1 84 +23 +25 комфорт 1011.1 990.7
12 14.07 З 4 15 км {дождь} 8/8 1000 м
[Cu Sc]
+20.6 +16.8 79 +24 +26 комфорт 1010.8 990.5 0.2
13 14.07 З 4 20 км 9/9 1000 м
[Cu Sc]
+20.9 +16.0 74 +24 +25 комфорт 1010.7 990.4
14 14.07 З 3 20 км 9/9 1000 м
[Cu Sc]
+21.0 +16.5 75 +25 +26 комфорт 1010.5 990.2
15 14.07 СЗ 2 30 км 6/6 1000 м
[Cu Sc]
+22.5 +16.8 70 +27 +30 душно 1010.2 989.9
16 14.07 З 3 30 км 5/5 1000 м
[Cu med, cong]
+21.9 +15.1 65 +25 +27 комфорт 1010.2 989.9
17 14.07 З 2 20 км 5/5 1000 м
[Cu med, cong]
+21.6 +15.7 69 +25 +25 комфорт 1010.3 990.0
18 14.07 З 2 20 км 5/5 1000 м
[Sc]
+18.2 +14.7 80 +19 +19 1010.6 990.0 +22.6 0.2
19 14.07 ЮЗ 1 20 км 6/6 1000 м
[Sc]
+17.7 +16.4 92 +19 +19 1011.2 990.6
20 14.07 ЮЗ 2 20 км 6/6 1000 м
[Sc]
+17.7 +16.4 92 +18 +18 1011.7 991.1
21 14.07 ЮЗ 1 20 км 6/6 1000 м
[Sc]
+16.8 +15.7 93 +18 +18 1011.7 991.1
22 14.07 ЮЗ 2 20 км 5/5 1000 м
[Sc]
+15.9 +14.9 94 +16 +16 1011.9 991.1
23 14.07 ЮЗ 1 20 км 4/4 1000 м
[Sc]
+15.6 +14.8 95 +16 +16 1011.8 991.0
00 15.07 штиль 0 10 км ясно +15.2 +14.5 96 +15 +15 1011.7 990.9
01 15.07 ЮЗ 2 20 км ясно +15.0 +13.7 92 +15 +15 1011.7 990.9
02 15.07 ЮЗ 1 20 км ясно +14.6 +13.9 96 +15 +15 1011.9 990.7
03 15.07 ЮЗ 1 20 км ясно +14.6 +13.9 96 +15 +15 1011.9 990.7
04 15.07 З 2 20 км 4/4 1000 м
[Sc]
+14.7 +13.9 95 +14 +14 1011.9 990.7
05 15.07 ЮЗ 1 20 км 5/5 1000 м
[Sc]
+15.8 +14.9 94 +16 +18 1011.5 990.7
06 15.07 З 2 20 км 8/5 1000 м
[Cu Sc Ac trans]
+18.4 +15.3 82 +19 +21 1011.9 991.3 +14.2
07 15.07 З 3 20 км 8/5 600 м
[Cu Sc Ac trans]
+19.1 +14.3 74 +21 +23 комфорт 1011.9 991.3
08 15.07 З 2 20 км 8/8 600 м
[Cu Sc]
+20.4 +15.0 71 +24 +26 комфорт 1011.9 991.4
09 15.07 ЮЗ 2 20 км 8/8 1000 м
[Cu Sc]
+20.3 +14.8 71 +23 +27 комфорт 1012.1 991.6
10 15.07 СЗ 1 20 км слаб. дождь 9/9 600 м
[Cu Sc]
+19.9 +16.6 81 +24 +26 комфорт 1012.0 991.6
11 15.07 З 3 20 км слаб. дождь 9/9 600 м
[Cu Sc]
+19.5 +16.8 84 +22 +23 комфорт 1012.1 991.7
12 15.07 З 2 20 км {ливн. осадки, дождь} 9/9 1000 м
[Cu Sc]
+21.1 +16.5 75 +25 +26 комфорт 1011.9 991.5 2
13 15.07 СЗ 1 20 км 9/9 1000 м
[Cu Sc]
+22.6 +15.3 63 +26 +28 жарко 1011.4 991.2
14 15.07 Ю 1 20 км 8/8 1000 м
[Cu Sc]
+21.6 +15.4 68 +25 +27 комфорт 1011.7 991.3
15 15.07 Ю 2 20 км 9/9 1000 м
[Cu Sc]
+20.9 +17.1 79 +25 +26 комфорт 1011.7 991.3
16 15.07 ЮЗ 1 20 км 9/9 1000 м
[Cu Sc]
+21.3 +16.2 73 +25 +25 комфорт 1011.6 991.2
17 15.07 ЮЗ 2 20 км 9/5 1000 м
[Cu Sc Ci sp]
+21.9 +16.1 70 +26 +26 душно 1011.5 991.2
18 15.07 ЮЗ 1 20 км 6/4 1000 м
[Cu Sc Ci sp]
+20.6 +17.7 83 +25 +25 комфорт 1012.0 991.6 +22.9 2
19 15.07 З 1 20 км 4/0
[Ci sp]
+18.8 +17.1 90 +21 +21 комфорт 1012.3 991.8
20 15.07 ЮЗ 2 20 км 6/0
[Ac trans Ci sp]
+17.6 +16.6 94 +18 +18 1012.8 992.2
21 15.07 ЮЗ 1 20 км 5/0
[Ac trans Ci sp]
+16.8 +16.0 95 +18 +18 1013.1 992.4
22 15.07 ЮЗ 2 20 км 4/0
[Ci sp]
+16.1 +15.3 95 +16 +16 1013.3 992.5
23 15.07 ЮЗ 1 20 км 4/0
[Ci sp]
+15.6 +14.8 95 +16 +16 1013.3 992.5
00 16.07 ЮЗ 1 20 км 4/0
[Ci sp]
+15.1 +14.3 95 +16 +16 1013.4 992.5
01 16.07 ЮЗ 1 20 км 3/0
[Ci sp]
+14.6 +13.6 94 +15 +15 1013.3 992.4
02 16.07 ЮЗ 1 20 км 3/0
[Ci sp]
+14.1 +13.1 94 +14 +14 1013.3 992.3
03 16.07 ЮЗ 1 20 км ясно +13.9 +13.1 95 +14 +14 1013.2 992.2
04 16.07 ЮЗ 2 30 км 3/0
[Ci sp]
+13.7 +12.8 94 +13 +13 1013.3 992.3
05 16.07 ЮЗ 1 30 км 6/0
[Cs]
+14.5 +13.4 93 +15 +17 1013.5 992.5
06 16.07 ЮЗ 1 30 км 6/0
[Cs]
+17.3 +13.4 78 +18 +24 1012.0 992.3 +13.7
07 16.07 З 2 30 км 3/0
[Ci sp]
+20.4 +14.1 67 +23 +32 комфорт 1012.8 992.3
08 16.07 В 1 30 км 4/1
[Cu hum Ci sp]
+22.1 +13.8 59 +25 +38 комфорт 1012.8 992.4
09 16.07 С 1 30 км 4/1 1000 м
[Cu hum Ci sp]
+23.5 +12.5 50 +25 +42 комфорт 1012.7 992.5
10 16.07 С 2 30 км 4/1 1000 м
[Cu hum Ci sp]
+24.1 +10.6 43 +25 +41 комфорт 1012.7 992.5
11 16.07 С 3 30 км 5/5 1000 м
[Cu Sc]
+24.7 +10.2 40 +26 +33 жарко 1012.3 992.1
12 16.07 С 3 30 км 5/5 1000 м
[Cu Sc]
+24.9 +9.5 38 +26 +33 жарко 1012.2 992.0
13 16.07 СВ 3 30 км 5/5 1000 м
[Cu Sc]
+24.7 +10.2 40 +26 +32 жарко 1011.7 991.5
14 16.07 С 2 30 км 5/5 1000 м
[Cu Sc]
+25.3 +9.2 36 +26 +31 жарко 1011.4 991.2
15 16.07 С 2 30 км 5/5 1000 м
[Cu Sc]
+24.6 +8.8 37 +25 +28 комфорт 1011.3 991.1
16 16.07 СЗ 2 30 км 5/5 1000 м
[Cu Sc]
+25.4 +9.4 36 +26 +27 жарко 1011.5 991.3
17 16.07 СЗ 2 30 км 4/4 1000 м
[Cu Sc]
+24.4 +10.0 40 +25 +26 комфорт 1011.5 991.3
18 16.07 З 2 30 км 4/4 1000 м
[Sc]
+22.7 +11.8 50 +25 +25 комфорт 1011.9 991.6 +26.2
19 16.07 З 2 30 км 3/3 1000 м
[Sc]
+20.3 +13.9 67 +23 +23 комфорт 1012.6 992.1
20 16.07 З 2 30 км ясно +18.4 +14.3 77 +19 +19 1013.3 992.6
21 16.07 ЮЗ 2 30 км ясно +17.1 +13.9 81 +17 +17 1013.5 992.7
22 16.07 ЮЗ 2 20 км ясно +16.3 +13.4 83 +16 +16 1013.7 992.9
23 16.07 ЮЗ 2 30 км ясно +15.7 +13.1 85 +16 +16 1013.8 993.0
00 17.07 ЮЗ 2 30 км 1/0
[Ac trans]
+15.0 +12.5 85 +15 +15 1013.9 993.0
01 17.07 ЮЗ 1 30 км 1/0
[Ac trans]
+14.7 +12.3 86 +15 +15 1013.6 992.9
02 17.07 ЮЗ 2 30 км ясно +14.3 +12.1 87 +14 +14 1013.9 992.9
03 17.07 ЮЗ 2 30 км 3/0
[Ac trans]
+13.9 +12.4 91 +13 +13 1013.9 992.9
04 17.07 ЮЗ 2 50 км 6/5 1000 м
[Cu hum Ac trans]
+14.7 +12.5 87 +14 +15 1013.9 993.0
05 17.07 З 2 50 км 5/5 1000 м
[Cu hum]
+15.9 +12.0 78 +16 +17 1013.7 992.9
06 17.07 З 1 50 км 8/8 600 м
[Cu Sc]
+18.2 +13.5 74 +20 +21 1013.4 992.7 +13.9
07 17.07 З 3 50 км 8/8 600 м
[Cu Sc]
+21.7 +13.8 61 +25 +26 комфорт 1013.4 993.0
08 17.07 З 3 50 км 5/5 600 м
[Cu Sc]
+23.0 +13.0 53 +26 +31 жарко 1013.4 993.1
09 17.07 ЮЗ 1 50 км 5/5 600 м
[Cu Sc]
+24.7 +14.0 51 +27 +37 жарко 1013.3 993.1
10 17.07 С 2 50 км 5/5 600 м
[Cu Sc]
+25.6 +13.4 47 +28 +37 жарко 1012.8 992.7
11 17.07 СЗ 3 50 км 5/5 600 м
[Cu Sc]
+26.4 +13.6 45 +28 +36 жарко 1012.6 992.5
12 17.07 С 2 50 км 4/4 600 м
[Cu Sc]
+27.0 +14.0 45 +29 +40 жарко 1012.2 992.2
13 17.07 З 2 50 км 5/5 600 м
[Cu Sc]
+26.8 +13.2 43 +29 +36 жарко 1012.0 992.0
14 17.07 З 2 50 км 8/8 600 м
[Cu Sc]
+27.0 +12.7 41 +29 +31 жарко 1011.7 991.7
15 17.07 З 3 50 км 8/8 600 м
[Cu Sc]
+27.0 +12.7 41 +29 +30 жарко 1011.7 991.7
16 17.07 СЗ 2 50 км 6/6 600 м
[Cu Sc]
+26.8 +13.2 43 +29 +30 жарко 1011.4 991.4
17 17.07 СЗ 1 50 км ясно +26.4 +13.6 45 +28 +29 жарко 1011.5 991.4
18 17.07 З 1 50 км ясно +24.9 +14.7 53 +28 +28 жарко 1011.5 991.4 +27.2
19 17.07 ЮЗ 1 50 км 3/0
[Ci sp]
+21.6 +16.5 73 +25 +25 комфорт 1011.8 991.5
20 17.07 З 2 30 км 3/0
[Ci sp]
+20.0 +16.3 79 +23 +23 комфорт 1012.5 992.1
21 17.07 ЮЗ 2 30 км 3/0
[Ci sp]
+19.0 +15.8 82 +21 +21 комфорт 1012.3 991.8
22 17.07 ЮЗ 2 30 км ясно +18.2 +15.5 84 +19 +19 1012.8 992.2
23 17.07 ЮЗ 2 20 км ясно +17.5 +15.3 87 +18 +18 1012.7 992.0
00 18.07 ЮЗ 2 20 км 3/0
[Ci sp]
+17.3 +15.3 88 +18 +18 1012.4 991.7
01 18.07 ЮЗ 2 20 км 4/0
[Ci sp]
+16.7 +14.9 89 +17 +17 1012.2 991.5
02 18.07 ЮЗ 2 20 км ясно +16.0 +14.4 90 +16 +16 1012.3 991.5
03 18.07 СВ 1 30 км 1/0
[Ci sp]
+14.4 +13.0 91 +15 +15 1012.7 991.7
04 18.07 штиль 0 50 км 4/0
[Ci sp]
+13.7 +12.5 92 +13 +14 1013.0 992.0
05 18.07 ЮЗ 1 50 км 4/0
[Ci sp]
+16.8 +13.9 83 +18 +20 1012.9 992.2
06 18.07 ЮЗ 1 50 км ясно +20.0 +15.1 73 +23 +29 комфорт 1012.7 992.2 +13.7
07 18.07 штиль 0 50 км 4/0
[Ci sp]
+22.9 +13.2 54 +26 +37 жарко 1012.5 992.2
08 18.07 СВ 1 50 км 4/0
[Ci sp]
+25.3 +14.9 53 +28 +42 жарко 1012.3 992.2
09 18.07 С 2 50 км 6/0
[Cs]
+25.9 +14.4 49 +28 +43 жарко 1012.5 992.4
10 18.07 СВ 2 50 км 6/0
[Cs]
+26.7 +12.8 42 +28 +44 жарко 1012.6 992.2
11 18.07 В 2 50 км 6/0
[Cs]
+27.9 +13.1 40 +30 +46 жарко 1012.2 992.2
12 18.07 СВ 3 50 км 6/0
[Cs]
+28.3 +12.8 38 +30 +42 жарко 1012.2 992.2
13 18.07 С 1 50 км 5/1 1000 м
[Cu hum Ci sp]
+28.7 +12.1 36 +30 +43 жарко 1011.6 991.7
14 18.07 В 2 50 км 4/1 1000 м
[Cu hum Ci sp]
+29.0 +11.8 35 +30 +39 жарко 1011.5 991.6
15 18.07 СВ 2 50 км 4/1 1000 м
[Cu hum Ci sp]
+29.0 +11.8 35 +30 +35 жарко 1011.1 991.2
16 18.07 В 3 50 км 4/1 1000 м
[Cu hum Ci sp]
+28.8 +12.3 36 +30 +32 жарко 1011.0 991.1
17 18.07 В 2 50 км 4/1 1000 м
[Cu hum Ci sp]
+27.9 +12.3 38 +29 +30 жарко 1011.0 991.0
18 18.07 СЗ 1 30 км 4/1 1000 м
[Cu hum Ci sp]
+24.3 +14.4 54 +27 +27 жарко 1011.2 991.0 +29.5
19 18.07 З 2 20 км зарница 8/4 1000 м
[Cb calv Cs]
+22.7 +15.4 63 +27 +27 душно 1012.6 992.4
20 18.07 ЮЗ 3 20 км зарница 8/4 1000 м
[Cb calv Cs]
+22.6 +15.6 65 +27 +27 душно 1015.2 994.9
21 18.07 З 5 10 км гроза, ливневой дождь 10/10 600 м
[Cb cap]
+18.4 +16.9 91 +19 +19 1016.1 995.4
22 18.07 З 3 10 км слаб. дождь {гроза} 10/10 1000 м
[Sc]
+17.6 +16.6 94 +18 +18 1015.7 995.0
23 18.07 Ю 2 10 км слаб. дождь {гроза} 10/10 1000 м
[Sc]
+17.3 +16.5 95 +18 +18 1015.4 994.7
00 19.07 штиль 0 10 км в посл. час дождь {гроза} 10/10 600 м
[Sc]
+17.3 +16.5 95 +17 +17 1015.4 994.7 5
01 19.07 З 2 10 км 8/8 1000 м
[Sc]
+16.9 +16.1 95 +17 +17 1015.4 994.7
02 19.07 ЮЗ 2 10 км 8/8 1000 м
[Sc]
+16.9 +16.1 95 +17 +17 1015.9 995.2
03 19.07 З 1 10 км 8/8 1000 м
[Sc]
+16.6 +16.2 97 +17 +17 1016.1 995.4
04 19.07 ЮЗ 1 20 км 6/6 1000 м
[Sc]
+16.6 +16.0 96 +17 +18 1016.3 995.6
05 19.07 З 1 20 км 6/6 1000 м
[Sc]
+16.9 +16.1 95 +18 +19 1016.7 996.0
06 19.07 ЮЗ 1 30 км 8/8 1000 м
[Sc]
+17.6 +16.3 92 +19 +20 1017.1 996.4 +16.5 6
07 19.07 штиль 0 30 км 6/4 1000 м
[Sc Ac trans]
+19.4 +16.6 84 +21 +27 комфорт 1017.1 996.5
08 19.07 СВ 1 30 км 6/3 1000 м
[Sc Ac trans]
+22.4 +16.6 70 +27 +35 душно 1017.1 996.7
09 19.07 В 2 30 км 5/1 1000 м
[Cu hum Ac trans Ci fib]
+24.0 +17.9 69 +28 +40 душно 1017.1 996.8
10 19.07 В 2 30 км 4/1 1000 м
[Cu med, cong Ci fib]
+24.9 +15.8 57 +28 +43 жарко 1016.9 996.7
11 19.07 В 2 30 км 4/3 1000 м
[Cu med, cong Ci fib]
+26.0 +14.5 49 +28 +41 жарко 1016.8 996.6
12 19.07 СВ 2 30 км 4/4 1000 м
[Cu med, cong]
+27.2 +13.9 44 +29 +40 жарко 1016.3 996.2
13 19.07 СЗ 2 30 км 3/3 1000 м
[Cu med, cong]
+27.9 +13.9 42 +30 +40 жарко 1015.9 995.8
14 19.07 С 2 30 км 4/4 1000 м
[Cu med, cong]
+27.9 +13.9 42 +30 +36 жарко 1015.4 995.4
15 19.07 СЗ 1 30 км 4/4 1000 м
[Cu med, cong]
+28.5 +13.9 41 +30 +35 жарко 1015.3 995.3
16 19.07 СВ 2 30 км 4/4 1000 м
[Cu med, cong]
+27.9 +13.5 41 +30 +31 жарко 1015.4 995.4
17 19.07 С 1 30 км 3/3 1000 м
[Cu med, cong]
+27.7 +14.5 44 +30 +31 жарко 1015.7 995.6
18 19.07 СЗ 1 30 км 3/3 1000 м
[Cu med, cong]
+26.2 +16.2 54 +30 +30 душно 1015.9 995.8 +28.9
19 19.07 ЮЗ 2 20 км ясно +22.4 +16.6 70 +27 +27 душно 1016.6 996.2
20 19.07 ЮЗ 1 20 км ясно +21.4 +17.2 77 +25 +25 комфорт 1017.1 996.6
21 19.07 ЮЗ 2 20 км ясно +20.3 +17.7 85 +24 +24 комфорт 1017.7 997.1
22 19.07 ЮЗ 1 20 км ясно +19.6 +17.2 86 +23 +23 комфорт 1017.9 997.3
23 19.07 ЮЗ 2 20 км ясно +19.0 +17.5 91 +21 +21 комфорт 1017.7 997.1
00 20.07 ЮЗ 2 20 км ясно +18.2 +16.9 92 +19 +19 1017.8 997.1
01 20.07 ЮЗ 1 10 км ясно +17.7 +16.8 94 +19 +19 1017.8 997.1
02 20.07 Ю 1 20 км ясно +17.0 +16.2 95 +18 +18 1017.8 997.0
03 20.07 ЮЗ 1 20 км ясно +15.7 +15.0 96 +16 +16 1018.2 997.3
04 20.07 ЮЗ 1 30 км ясно +16.4 +15.4 94 +17 +18 1018.4 997.5
05 20.07 ЮЗ 1 30 км ясно +18.2 +16.9 92 +20 +22 1018.6 998.0
06 20.07 штиль 0 30 км ясно +21.1 +17.8 81 +25 +32 комфорт 1018.6 998.1 +15.7
07 20.07 СВ 1 30 км ясно +23.3 +16.6 66 +28 +38 душно 1018.6 998.2
08 20.07 С 1 30 км ясно +26.4 +16.6 55 +30 +45 душно 1018.4 998.2
09 20.07 В 2 30 км 1/1 1000 м
[Cu hum]
+27.9 +15.6 47 +31 +45 душно 1018.2 998.2
10 20.07 В 2 30 км 1/1 1000 м
[Cu hum]
+28.7 +16.4 47 +32 +48 душно 1018.1 998.1
11 20.07 ЮВ 2 30 км 3/3 1000 м
[Cu hum]
+30.4 +16.2 42 +33 +46 душно 1017.8 997.9
12 20.07 ЮВ 2 30 км 5/5 1000 м
[Cu Sc]
+30.7 +16.0 41 +34 +42 очень
душно
1017.4 997.6
13 20.07 СВ 1 30 км 5/5 1000 м
[Cu Sc]
+29.9 +14.9 40 +32 +40 жарко 1017.2 997.3

 

Местоположение метеостанции Валево (Сербия): широта 44.32 долгота 19.92 высота над уровнем моря 177 м.

В архиве по умолчанию представлена погода в Валево за последнюю неделю. Архивные данные за месяц целиком и за предыдущие месяцы, начиная с января 2011 года, Вы можете получить, выбрав интересующий диапазон дат из раскрывающегося списка и нажав кнопку "Ввод!".


*Определитесь, кто Вы:
робот инопланетянин человек

Внимание! Время в таблицах - всемирное. Для получения местного времени необходимо прибавить поправку, которая равна 1 ч.

Смотрите также архив погоды в соседних городах и на ближайших метеорологических станциях:

Погода в Пожега Ужичка (Сербия) (55 км)
Погода в Лознице (Сербия) (60 км)
Погода в Белград аэропорту (Сербия) (63 км)
Погода в Златиборе (Сербия) (68 км)
Погода в Белграде (Сербия) (69 км)
Погода в Смедеревска-Паланке (Сербия) (82 км)
Погода в Крагуеваце (Сербия) (87 км)
Погода в Сремска-Митровице (Сербия) (92 км)
Погода в Кралево (Сербия) (93 км)
Погода в Тузле (Босния и Герцеговина) (100 км)

Пояснения к столбцам:

Ветер - указаны скорость ветра в м/с - средняя за 10 мин, порывы в срок и между сроками (в фигурных скобках) и направление, откуда дует ветер: С - северный, СВ - северо-восточный, В - восточный, ЮВ - юго-восточный, Ю - южный, ЮЗ - юго-западный, З - западный, СЗ - северо-западный.
Видимость - горизонтальная дальность видимости в метрах или километрах. При видимости от 1 до 10 км при отсутствии осадков обычно наблюдается дымка, при ухудшении видимости до 1 км и менее - туман. В сухую погоду видимость может ухудшаться дымом, пылью или мглою.
Явления - указаны атмосферные явления, наблюдавшиеся в срок или в последний час перед сроком; фигурными скобками обозначены явления, наблюдавшиеся между сроками (за 1-3 часа до срока); квадратными скобками обозначены град или гололедные отложения с указанием их диаметра в мм.
Облачность - указаны через наклонную черту общая и нижняя облачность в баллах и высота нижней границы облаков в метрах; квадратными скобками обозначены формы облаков: Ci - перистые, Cs - перисто-слоистые, Cc - перисто-кучевые, Ac - высококучевые, As - высокослоистые, Sc - слоисто-кучевые, Ns - слоисто-дождевые, Cu - кучевые, Cb - кучево-дождевые. Подробнее классификацию облаков см. в Атласе облаков (PDF).
T - Температура воздуха - температура, измеренная на высоте 2 м над землей.
Td - Температура точки росы - температура, при понижении до которой содержащийся в воздухе водяной пар достигнет насыщения.
f - Относительная влажность воздуха - влажноcть воздуха, измеренная на высоте 2 м над землей.
Te - Эффективная температура - температура, которую ощущает одетый по сезону человек в тени. Характеристика душности погоды. При расчете учитывается влияние влажности воздуха и скорости ветра на теплоощущения человека.
Tes - Эффективная температура на солнце - температура, которую ощущает человек, с поправкой на солнечный нагрев. Характеристика знойности погоды. Зависит от высоты солнца над горизонтом, облачности и скорости ветра. Ночью, в пасмурную погоду, а также при ветре 12 м/с и более поправка равна нулю.
P - Атмосферное давление - приведенное к уровню моря атмосферное давление.
Po - Атмосферное давление - измеренное на уровне метеостанции атмосферное давление.
Tmin - Минимальная температура - минимум температуры воздуха на высоте 2 м над землей.
Tmax - Максимальная температура - максимум температуры воздуха на высоте 2 м над землей.
R - Количество осадков - Количество выпавших осадков за период времени, мм. При наведении курсора мыши на число - период времени, за который выпало указанное количество осадков.
R24 - Количество осадков - Количество выпавших осадков за 24 часа, мм.
S - Снежный покров - Высота снежного покрова, см. При наведении курсора мыши на число - состояние снежного покрова и степень покрытия местности в баллах.